Location: Biharia
(46.4333°N, 22.8000°E)
Time: 04:17:28
(UTC+00:00)

Cosmos 494 Rocket - Pass Details

Date: 26 May 2022
Orbit: 742 x 770 km, 74.1° (Epoch: 05 July)

Event Time Altitude Azimuth Distance (km) Brightness Sun altitude
Rises 21:06:46 0° 348° (NNW) 3,195 8.8 -20.0°
Reaches altitude 10° 21:09:54 10° 8° (N) 2,265 7.4 -20.2°
Maximum altitude 21:13:21 18° 50° (NE) 1,780 6.1 -20.4°
Drops below altitude 10° 21:16:48 10° 93° (E) 2,257 6.2 -20.5°
Enters shadow 21:16:56 10° 94° (E) 2,292 6.3 -20.5°
